Terminal Aerodrome Forecast
Issued by NWS

Home | Current Version | Previous Version | Text Only | Print | Product List | Glossary On
Versions: 1 2 3 4 5 6 7 8 9 10 11 12 13 14 15 16 17 18 19 20 21 22 23
000
FTUS43 KMQT 172300
TAFCMX
TAF
KCMX 172337Z 1800/1824 01010KT P6SM -SN BKN015
     FM180100 01010KT P6SM BKN020
     FM180300 02005KT P6SM SCT025=

USA.gov is the U.S. government's official web portal to all federal, state and local government web resources and services.